• In Deutschland
  • Länderverzeichnis
  • Für 7 Tage
  • Wassertemperatur
  • Satellitenkarten
  • Wetterkarte
  • Widgets
  • user-avatar
    Anmelden

    Stündliche Wetter Hamhŭng

    Heute, 17 Januar, Mittwoch

    Zeit Temperatur Niederschläge Wind Luftdruck Luftfeuchtigkeit
    00:00 -1°C° 0 mm 3 m/S 760 mmHg 67%
    01:00 -2°C° 0 mm 2 m/S 761 mmHg 71%
    02:00 -2°C° 0 mm 2 m/S 761 mmHg 75%
    03:00 -2°C° 0 mm 2 m/S 761 mmHg 83%
    04:00 -2°C° 0 mm 2 m/S 761 mmHg 83%
    05:00 -2°C° 0 mm 2 m/S 761 mmHg 82%
    06:00 -2°C° 0 mm 2 m/S 761 mmHg 82%
    07:00 -2°C° 0 mm 2 m/S 761 mmHg 81%
    08:00 -1°C° 0 mm 2 m/S 761 mmHg 80%
    09:00 +1°C° 0 mm 2 m/S 761 mmHg 82%
    10:00 +3°C° 0 mm 1 m/S 761 mmHg 78%
    11:00 +4°C° 0 mm 1 m/S 760 mmHg 74%
    12:00 +6°C° 0 mm 1 m/S 760 mmHg 69%
    13:00 +5°C° 0 mm 2 m/S 759 mmHg 68%
    14:00 +5°C° 0 mm 2 m/S 759 mmHg 66%
    15:00 +6°C° 0 mm 2 m/S 759 mmHg 64%
    16:00 +4°C° 0 mm 2 m/S 759 mmHg 72%
    17:00 +4°C° 0 mm 1 m/S 759 mmHg 80%
    18:00 +2°C° 0 mm 1 m/S 759 mmHg 88%
    19:00 +1°C° 0 mm 2 m/S 759 mmHg 86%
    20:00 -1°C° 0 mm 3 m/S 760 mmHg 85%
    21:00 -1°C° 0 mm 3 m/S 760 mmHg 84%
    22:00 -1°C° 0 mm 3 m/S 760 mmHg 80%
    23:00 -2°C° 0 mm 4 m/S 760 mmHg 77%

    Morgen, 18 Januar, Donnerstag

    Zeit Temperatur Niederschläge Wind Luftdruck Luftfeuchtigkeit
    00:00 -2°C° 0 mm 4 m/S 760 mmHg 74%
    01:00 -2°C° 0 mm 4 m/S 760 mmHg 74%
    02:00 -4°C° 0 mm 5 m/S 760 mmHg 74%
    03:00 -4°C° 0 mm 5 m/S 761 mmHg 74%
    04:00 -3°C° 0 mm 4 m/S 761 mmHg 74%
    05:00 -4°C° 0 mm 4 m/S 761 mmHg 75%
    06:00 -4°C° 0 mm 4 m/S 761 mmHg 75%
    07:00 -4°C° 0 mm 4 m/S 762 mmHg 72%
    08:00 -4°C° 0 mm 4 m/S 762 mmHg 68%
    09:00 -4°C° 0 mm 4 m/S 763 mmHg 64%
    10:00 -2°C° 0 mm 4 m/S 763 mmHg 54%
    11:00 -1°C° 0 mm 4 m/S 763 mmHg 44%
    12:00 +1°C° 0 mm 4 m/S 763 mmHg 34%
    13:00 +1°C° 0 mm 4 m/S 762 mmHg 35%
    14:00 +3°C° 0 mm 4 m/S 762 mmHg 35%
    15:00 +3°C° 0 mm 4 m/S 762 mmHg 35%
    16:00 0°C° 0 mm 4 m/S 763 mmHg 42%
    17:00 -1°C° 0 mm 4 m/S 763 mmHg 50%
    18:00 -3°C° 0 mm 4 m/S 764 mmHg 57%
    19:00 -4°C° 0 mm 4 m/S 764 mmHg 58%
    20:00 -4°C° 0 mm 4 m/S 765 mmHg 59%
    21:00 -5°C° 0 mm 4 m/S 765 mmHg 61%
    22:00 -5°C° 0 mm 3 m/S 765 mmHg 59%
    23:00 -6°C° 0 mm 3 m/S 766 mmHg 58%

    übermorgen, 19 Januar, Freitag

    Zeit Temperatur Niederschläge Wind Luftdruck Luftfeuchtigkeit
    00:00 -6°C° 0 mm 3 m/S 766 mmHg 56%
    01:00 -6°C° 0 mm 3 m/S 766 mmHg 55%
    02:00 -6°C° 0 mm 3 m/S 766 mmHg 53%
    03:00 -6°C° 0 mm 3 m/S 766 mmHg 52%
    04:00 -6°C° 0 mm 3 m/S 766 mmHg 51%
    05:00 -7°C° 0 mm 3 m/S 766 mmHg 50%
    06:00 -7°C° 0 mm 3 m/S 765 mmHg 49%
    07:00 -6°C° 0 mm 3 m/S 765 mmHg 47%
    08:00 -6°C° 0 mm 3 m/S 765 mmHg 45%
    09:00 -5°C° 0 mm 3 m/S 766 mmHg 43%
    10:00 -3°C° 0 mm 4 m/S 765 mmHg 39%
    11:00 -2°C° 0 mm 4 m/S 765 mmHg 35%
    12:00 0°C° 0 mm 4 m/S 764 mmHg 31%
    13:00 +1°C° 0 mm 5 m/S 763 mmHg 33%
    14:00 +1°C° 0 mm 5 m/S 763 mmHg 34%
    15:00 +1°C° 0 mm 6 m/S 762 mmHg 35%
    16:00 0°C° 0 mm 5 m/S 762 mmHg 43%
    17:00 -2°C° 0 mm 5 m/S 762 mmHg 51%
    18:00 -4°C° 0 mm 5 m/S 763 mmHg 59%
    19:00 -5°C° 0 mm 5 m/S 763 mmHg 62%
    20:00 -6°C° 0 mm 5 m/S 763 mmHg 65%
    21:00 -5°C° 0 mm 4 m/S 763 mmHg 67%
    22:00 -5°C° 0 mm 4 m/S 763 mmHg 67%
    23:00 -7°C° 0 mm 4 m/S 763 mmHg 67%

    20 Januar, Samstag

    Zeit Temperatur Niederschläge Wind Luftdruck Luftfeuchtigkeit
    00:00 -7°C° 0 mm 4 m/S 763 mmHg 67%
    01:00 -7°C° 0 mm 4 m/S 763 mmHg 66%
    02:00 -7°C° 0 mm 4 m/S 763 mmHg 66%
    03:00 -8°C° 0 mm 4 m/S 763 mmHg 66%
    04:00 -8°C° 0 mm 4 m/S 763 mmHg 65%
    05:00 -8°C° 0 mm 4 m/S 763 mmHg 64%
    06:00 -7°C° 0 mm 3 m/S 763 mmHg 63%
    07:00 -7°C° 0 mm 3 m/S 763 mmHg 60%
    08:00 -6°C° 0 mm 3 m/S 763 mmHg 56%
    09:00 -6°C° 0 mm 3 m/S 764 mmHg 53%
    10:00 -4°C° 0 mm 4 m/S 764 mmHg 46%
    11:00 -3°C° 0 mm 4 m/S 763 mmHg 39%
    12:00 -1°C° 0 mm 4 m/S 763 mmHg 32%
    13:00 -1°C° 0 mm 5 m/S 763 mmHg 32%
    14:00 -1°C° 0 mm 5 m/S 762 mmHg 32%
    15:00 -1°C° 0 mm 5 m/S 762 mmHg 33%
    16:00 -2°C° 0 mm 5 m/S 763 mmHg 37%
    17:00 -4°C° 0 mm 4 m/S 763 mmHg 42%
    18:00 -5°C° 0 mm 4 m/S 764 mmHg 47%
    19:00 -7°C° 0 mm 4 m/S 764 mmHg 48%
    20:00 -7°C° 0 mm 4 m/S 765 mmHg 50%
    21:00 -8°C° 0 mm 4 m/S 765 mmHg 52%
    22:00 -9°C° 0 mm 4 m/S 766 mmHg 51%
    23:00 -9°C° 0 mm 4 m/S 766 mmHg 50%

    21 Januar, Sonntag

    Zeit Temperatur Niederschläge Wind Luftdruck Luftfeuchtigkeit
    00:00 -10°C° 0 mm 4 m/S 766 mmHg 48%
    01:00 -10°C° 0 mm 4 m/S 766 mmHg 47%
    02:00 -10°C° 0 mm 4 m/S 767 mmHg 45%
    03:00 -11°C° 0 mm 4 m/S 767 mmHg 44%
    04:00 -10°C° 0 mm 3 m/S 767 mmHg 42%
    05:00 -10°C° 0 mm 3 m/S 767 mmHg 40%
    06:00 -10°C° 0 mm 3 m/S 767 mmHg 38%
    07:00 -10°C° 0 mm 3 m/S 767 mmHg 36%
    08:00 -10°C° 0 mm 3 m/S 768 mmHg 33%
    09:00 -9°C° 0 mm 3 m/S 768 mmHg 31%
    10:00 -6°C° 0 mm 2 m/S 768 mmHg 28%
    11:00 -4°C° 0 mm 2 m/S 767 mmHg 25%
    12:00 0°C° 0 mm 1 m/S 767 mmHg 22%
    13:00 +1°C° 0 mm 1 m/S 766 mmHg 25%
    14:00 +1°C° 0 mm 1 m/S 765 mmHg 28%
    15:00 +1°C° 0 mm 2 m/S 765 mmHg 30%
    16:00 -1°C° 0 mm 2 m/S 765 mmHg 36%
    17:00 -3°C° 0 mm 2 m/S 765 mmHg 42%
    18:00 -4°C° 0 mm 2 m/S 765 mmHg 48%
    19:00 -2°C° 0 mm 1 m/S 765 mmHg 50%
    20:00 -3°C° 0 mm 1 m/S 766 mmHg 51%
    21:00 -3°C° 0 mm 1 m/S 766 mmHg 52%
    22:00 -3°C° 0 mm 1 m/S 766 mmHg 53%
    23:00 -4°C° 0 mm 1 m/S 766 mmHg 54%

    22 Januar, Montag

    Zeit Temperatur Niederschläge Wind Luftdruck Luftfeuchtigkeit
    00:00 -4°C° 0 mm 1 m/S 766 mmHg 54%
    01:00 -4°C° 0 mm 1 m/S 765 mmHg 56%
    02:00 -4°C° 0 mm 1 m/S 765 mmHg 57%
    03:00 -4°C° 0 mm 1 m/S 765 mmHg 59%
    04:00 -4°C° 0 mm 1 m/S 765 mmHg 60%
    05:00 -4°C° 0 mm 1 m/S 764 mmHg 61%
    06:00 -4°C° 0 mm 1 m/S 764 mmHg 63%
    07:00 -3°C° 0 mm 1 m/S 764 mmHg 63%
    08:00 -3°C° 0 mm 1 m/S 764 mmHg 62%
    09:00 -2°C° 0 mm 1 m/S 763 mmHg 62%
    10:00 -1°C° 0 mm 1 m/S 763 mmHg 59%
    11:00 0°C° 0 mm 1 m/S 762 mmHg 55%
    12:00 +1°C° 0 mm 2 m/S 762 mmHg 52%
    13:00 +1°C° 0 mm 2 m/S 761 mmHg 54%
    14:00 +1°C° 0 mm 2 m/S 760 mmHg 55%
    15:00 +1°C° 0 mm 2 m/S 760 mmHg 57%
    16:00 -1°C° 0,1 mm 2 m/S 760 mmHg 65%
    17:00 -2°C° 0,1 mm 2 m/S 760 mmHg 73%
    18:00 -3°C° 0,1 mm 2 m/S 760 mmHg 80%
    19:00 -3°C° 0,1 mm 2 m/S 760 mmHg 81%
    20:00 -3°C° 0,1 mm 2 m/S 760 mmHg 82%
    21:00 -5°C° 0,1 mm 3 m/S 760 mmHg 82%
    22:00 -6°C° 0,1 mm 3 m/S 760 mmHg 80%
    23:00 -6°C° 0,1 mm 3 m/S 760 mmHg 77%
    Mehr zeigen